Regional Weather Roundup
Issued by NWS Bismarck, ND

Home | Current Version | Previous Version | Text Only | Print | Product List | Glossary On
Versions: 1 2 3 4 5 6 7 8 9 10 11 12 13 14 15 16 17 18 19 20 21 22 23 24 25 26 27 28 29 30 31 32 33 34 35 36 37 38 39 40 41 42 43 44 45 46 47 48 49 50
000
ASUS43 KBIS 011901
RWRBIS

NWR BROADCAST TEXT
NATIONAL WEATHER SERVICE BISMARCK ND
100 PM CST SUN FEB 01 2015

NOTE: "FAIR" INDICATES FEW OR NO CLOUDS BELOW 12,000 FEET WITH NO
SIGNIFICANT WEATHER AND/OR OBSTRUCTIONS TO VISIBILITY.


CITY           SKY/WX    TMP DP  RH WIND       PRES   REMARKS
WILLISTON      SUNNY      2  -6  69 SW9       30.41F WCI -13
MINOT          SUNNY      0 -15  49 S7        30.42F WCI -13
MINOT AFB      SUNNY      1 -12  55 SW2       30.42F
BISMARCK       SUNNY      2 -13  49 VRB6      30.48F WCI  -9
DICKINSON      SUNNY      0  -9  65 W6        30.34F WCI -12
GARRISON         N/A     -2 -14  56 SW6       30.43F WCI -14
HETTINGER ARPT SUNNY      2  -5  72 W10       30.38F WCI -14
JAMESTOWN      SUNNY      1 -14  49 N12       30.45F WCI -16
CARRINGTON     FAIR       0 -13  55 MISG      30.47F
CROSBY         FAIR       5  -4  66 SW10      30.38F WCI -10
HAZEN          FAIR       0 -13  55 W5        30.47F HAZE    WCI -10
LINTON         FAIR       0 -17  46 N7        30.45F WCI -13
OAKES            N/A      1 -11  55 N15G21    30.45F WCI -18
WATFORD CITY   FAIR       1  -9  60 SW12      30.38F WCI -15
$$

CITY           SKY/WX    TMP DP  RH WIND       PRES   REMARKS
GRAND FORKS    MOSUNNY   -2 -15  54 N8        30.54F WCI -17
GRAND FORKS AF SUNNY     -1 -16  49 N8        30.53F WCI -16
DEVILS LAKE    SUNNY     -4 -18  50 W7        30.45F WCI -18
FARGO          FAIR       3 -12  49 N15G23    30.48F WCI -16
GWINNER        CLEAR      5 -11  47 N17G24    30.45F WCI -14
$$

CITY           SKY/WX    TMP DP  RH WIND       PRES   REMARKS
ABERDEEN       SUNNY      4  -8  57 N16       30.45F WCI -15
MOBRIDGE       SUNNY      3 -11  52 N14       30.42F WCI -15
BUFFALO          N/A      7   1  76 W9        30.27F WCI  -7
RAPID CITY     SUNNY     10   4  76 N15       30.32F WCI  -7
GLASGOW        SUNNY      4  -2  76 SE9       30.32F WCI -10
SIDNEY         SUNNY      1 -17  42 S12       30.43F WCI -15
WOLF POINT     SUNNY      6  -3  66 SW3       30.39F
GLENDIVE       SUNNY      7   0  72 S9        30.38F WCI  -7
MILES CITY     SUNNY      8   2  76 S8        30.35F WCI  -4
BAKER          SUNNY      6   1  80 W8        30.34F WCI  -7
$$

CITY           SKY/WX    TMP DP  RH WIND       PRES   REMARKS
GREAT FALLS    PTSUNNY   19  12  74 SW3       30.05F
$$




USA.gov is the U.S. government's official web portal to all federal, state and local government web resources and services.